TimeMST,TemperatureF,Dew PointF,Humidity,Sea Level PressureIn,VisibilityMPH,Wind Direction,Wind SpeedMPH,Gust SpeedMPH,PrecipitationIn,Events,Conditions,WindDirDegrees,DateUTC
12:15 AM,41.0,23.5,50,29.97,10.0,NNW,6.9,-,N/A,,Overcast,340,2014-02-02 07:15:00
12:35 AM,40.6,23.4,50,29.96,10.0,North,6.9,-,N/A,,Overcast,350,2014-02-02 07:35:00
12:55 AM,40.1,23.4,51,29.98,10.0,NNW,3.5,-,N/A,,Overcast,330,2014-02-02 07:55:00
1:15 AM,40.1,23.0,51,29.98,10.0,North,8.1,-,N/A,,Overcast,360,2014-02-02 08:15:00
1:35 AM,39.6,23.7,53,29.98,10.0,North,6.9,-,N/A,,Overcast,10,2014-02-02 08:35:00
1:55 AM,38.8,23.7,55,29.98,10.0,NNE,9.2,-,N/A,,Overcast,20,2014-02-02 08:55:00
2:15 AM,38.3,23.2,55,29.98,10.0,NNE,5.8,-,N/A,,Overcast,30,2014-02-02 09:15:00
2:35 AM,38.3,22.1,52,29.99,10.0,North,4.6,-,N/A,,Overcast,360,2014-02-02 09:35:00
2:55 AM,37.9,21.6,52,29.99,10.0,North,5.8,-,N/A,,Overcast,350,2014-02-02 09:55:00
3:15 AM,37.4,22.5,55,29.98,10.0,North,3.5,-,N/A,,Overcast,350,2014-02-02 10:15:00
3:35 AM,37.4,21.7,53,29.99,10.0,North,5.8,-,N/A,,Overcast,350,2014-02-02 10:35:00
3:55 AM,37.6,20.7,51,30.00,10.0,North,5.8,-,N/A,,Overcast,360,2014-02-02 10:55:00
4:15 AM,36.9,20.7,52,30.00,10.0,North,3.5,-,N/A,,Overcast,360,2014-02-02 11:15:00
4:35 AM,36.5,20.8,53,30.00,10.0,NW,4.6,-,N/A,,Overcast,310,2014-02-02 11:35:00
4:55 AM,36.5,20.3,52,30.00,10.0,NNW,6.9,-,N/A,,Overcast,330,2014-02-02 11:55:00
5:15 AM,36.5,19.4,50,30.00,10.0,NNW,8.1,-,N/A,,Overcast,340,2014-02-02 12:15:00
5:35 AM,36.0,21.9,57,30.01,10.0,NNW,9.2,-,N/A,,Overcast,330,2014-02-02 12:35:00
5:55 AM,35.4,22.6,60,30.01,10.0,NNW,8.1,-,N/A,,Mostly Cloudy,340,2014-02-02 12:55:00
6:15 AM,34.0,21.7,61,30.02,10.0,North,9.2,-,N/A,,Scattered Clouds,360,2014-02-02 13:15:00
6:35 AM,32.9,21.7,64,30.04,10.0,North,6.9,-,N/A,,Clear,10,2014-02-02 13:35:00
6:55 AM,32.0,20.5,63,30.05,10.0,North,3.5,-,N/A,,Clear,360,2014-02-02 13:55:00
7:15 AM,30.7,20.1,65,30.05,10.0,North,5.8,-,N/A,,Clear,350,2014-02-02 14:15:00
7:35 AM,29.8,19.4,65,30.06,10.0,NNW,8.1,-,N/A,,Clear,340,2014-02-02 14:35:00
7:55 AM,32.0,20.5,63,30.07,10.0,North,8.1,-,N/A,,Clear,350,2014-02-02 14:55:00
8:15 AM,33.8,20.5,58,30.08,10.0,North,9.2,-,N/A,,Clear,360,2014-02-02 15:15:00
8:35 AM,35.1,20.1,55,30.09,10.0,North,9.2,-,N/A,,Clear,360,2014-02-02 15:35:00
8:55 AM,36.5,20.3,52,30.09,10.0,North,11.5,-,N/A,,Clear,360,2014-02-02 15:55:00
9:15 AM,37.4,21.0,52,30.09,10.0,North,12.7,-,N/A,,Clear,360,2014-02-02 16:15:00
9:35 AM,38.5,20.8,49,30.11,10.0,North,11.5,16.1,N/A,,Clear,360,2014-02-02 16:35:00
9:55 AM,39.6,20.3,46,30.11,10.0,North,10.4,-,N/A,,Clear,350,2014-02-02 16:55:00
10:15 AM,40.3,19.4,43,30.11,10.0,North,11.5,16.1,N/A,,Clear,10,2014-02-02 17:15:00
10:35 AM,40.6,19.2,42,30.11,10.0,North,10.4,-,N/A,,Clear,360,2014-02-02 17:35:00
10:55 AM,42.1,18.7,39,30.11,10.0,NNW,9.2,-,N/A,,Scattered Clouds,330,2014-02-02 17:55:00
11:15 AM,43.0,18.9,38,30.10,10.0,North,9.2,-,N/A,,Overcast,360,2014-02-02 18:15:00
11:35 AM,44.1,18.9,37,30.10,10.0,North,8.1,-,N/A,,Overcast,10,2014-02-02 18:35:00
11:55 AM,45.0,18.3,35,30.08,10.0,NE,6.9,-,N/A,,Scattered Clouds,50,2014-02-02 18:55:00
12:15 PM,44.4,18.1,35,30.06,10.0,East,3.5,-,N/A,,Clear,90,2014-02-02 19:15:00
12:35 PM,46.0,18.3,33,30.05,10.0,NNW,5.8,-,N/A,,Clear,330,2014-02-02 19:35:00
12:55 PM,46.6,18.3,32,30.03,10.0,Calm,Calm,-,N/A,,Clear,0,2014-02-02 19:55:00
1:15 PM,46.4,18.1,32,30.01,10.0,ESE,4.6,-,N/A,,Clear,110,2014-02-02 20:15:00
1:35 PM,46.4,18.0,32,30.01,10.0,Calm,Calm,-,N/A,,Clear,0,2014-02-02 20:35:00
1:55 PM,47.8,18.3,31,30.00,10.0,Calm,Calm,-,N/A,,Clear,0,2014-02-02 20:55:00
2:15 PM,48.0,18.3,31,29.99,10.0,Calm,Calm,-,N/A,,Clear,0,2014-02-02 21:15:00
2:35 PM,49.1,18.1,29,29.99,10.0,ESE,5.8,-,N/A,,Clear,120,2014-02-02 21:35:00
2:55 PM,48.9,17.6,29,29.97,10.0,East,6.9,-,N/A,,Clear,100,2014-02-02 21:55:00
3:15 PM,49.3,17.2,28,29.97,10.0,South,6.9,-,N/A,,Clear,180,2014-02-02 22:15:00
3:35 PM,49.8,17.4,28,29.97,10.0,SSE,8.1,-,N/A,,Clear,150,2014-02-02 22:35:00
3:55 PM,49.8,17.2,27,29.96,10.0,SE,9.2,-,N/A,,Clear,140,2014-02-02 22:55:00
4:15 PM,49.5,17.4,28,29.95,10.0,SE,11.5,-,N/A,,Clear,140,2014-02-02 23:15:00
4:35 PM,49.6,17.2,28,29.96,10.0,SE,11.5,17.3,N/A,,Clear,140,2014-02-02 23:35:00
4:55 PM,49.1,17.6,29,29.96,10.0,SSE,11.5,-,N/A,,Clear,150,2014-02-02 23:55:00
5:15 PM,48.0,17.6,30,29.96,10.0,South,10.4,-,N/A,,Clear,170,2014-02-03 00:15:00
5:35 PM,46.2,18.1,33,29.97,10.0,South,10.4,-,N/A,,Clear,170,2014-02-03 00:35:00
5:55 PM,45.5,18.0,33,29.97,10.0,South,8.1,-,N/A,,Clear,170,2014-02-03 00:55:00
6:15 PM,44.8,18.1,34,29.97,10.0,SSE,8.1,-,N/A,,Clear,160,2014-02-03 01:15:00
6:35 PM,43.2,18.5,37,29.99,10.0,South,6.9,-,N/A,,Clear,170,2014-02-03 01:35:00
6:55 PM,41.5,18.3,39,29.99,10.0,SSE,5.8,-,N/A,,Clear,160,2014-02-03 01:55:00
7:15 PM,40.5,18.3,41,30.00,10.0,South,6.9,-,N/A,,Clear,170,2014-02-03 02:15:00
7:35 PM,41.5,18.7,40,30.00,10.0,South,8.1,-,N/A,,Clear,190,2014-02-03 02:35:00
7:55 PM,41.2,18.1,40,30.00,10.0,SSE,11.5,-,N/A,,Clear,150,2014-02-03 02:55:00
8:15 PM,41.5,23.0,48,29.99,10.0,SSE,13.8,-,N/A,,Clear,150,2014-02-03 03:15:00
8:35 PM,41.4,24.4,51,29.99,10.0,SSE,10.4,-,N/A,,Clear,150,2014-02-03 03:35:00
8:55 PM,41.0,24.8,53,29.99,10.0,SE,11.5,-,N/A,,Clear,130,2014-02-03 03:55:00
9:15 PM,40.3,25.2,55,29.98,10.0,SE,9.2,-,N/A,,Clear,140,2014-02-03 04:15:00
9:35 PM,41.2,25.9,55,29.99,10.0,South,12.7,-,N/A,,Clear,170,2014-02-03 04:35:00
9:55 PM,41.2,25.2,53,29.99,10.0,South,8.1,-,N/A,,Clear,170,2014-02-03 04:55:00
10:15 PM,39.6,24.8,56,29.98,10.0,South,5.8,-,N/A,,Clear,170,2014-02-03 05:15:00
10:35 PM,40.3,26.2,57,29.98,10.0,South,9.2,-,N/A,,Clear,180,2014-02-03 05:35:00
10:55 PM,39.6,27.0,61,29.98,10.0,South,10.4,-,N/A,,Clear,180,2014-02-03 05:55:00
11:15 PM,39.4,27.3,62,29.97,10.0,South,12.7,-,N/A,,Scattered Clouds,170,2014-02-03 06:15:00
11:35 PM,39.4,27.5,62,29.96,10.0,SSE,11.5,-,N/A,,Scattered Clouds,160,2014-02-03 06:35:00
11:55 PM,38.8,27.3,63,29.96,10.0,South,11.5,-,N/A,,Scattered Clouds,180,2014-02-03 06:55:00